This is the latest recevied weather packets stored in our database for station/object JR4VEV-13. If no packets are shown the sender has not sent any weather packets the latest 1 day(s).
| Time | Temp. | Humidity | Pressure | Rain* | Wind** | Luminosity | Snow |
|---|---|---|---|---|---|---|---|
| 1777983760 | 11.11° C | 73% | 1021 hPa | 0 mm | 0 m/s | - | - |
| 1777983159 | 11.67° C | 72% | 1020.9 hPa | 0 mm | 0.45 m/s, 281° | - | - |
| 1777982558 | 11.67° C | 72% | 1020.7 hPa | 0 mm | 0 m/s | - | - |
| 1777981958 | 11.67° C | 71% | 1020.4 hPa | 0 mm | 0.45 m/s, 283° | - | - |
| 1777981359 | 12.22° C | 70% | 1020.6 hPa | 0 mm | 0 m/s | - | - |
| 1777980758 | 12.78° C | 69% | 1020.3 hPa | 0 mm | 0 m/s | - | - |
| 1777980160 | 12.78° C | 68% | 1020.2 hPa | 0 mm | 0 m/s | - | - |
| 1777979559 | 13.33° C | 67% | 1020.1 hPa | 0 mm | 0 m/s | - | - |
| 1777978959 | 13.89° C | 61% | 1019.9 hPa | 0 mm | 0 m/s | - | - |
| 1777978358 | 13.89° C | 58% | 1020 hPa | 0 mm | 0 m/s | - | - |
| 1777977758 | 14.44° C | 57% | 1019.8 hPa | 0 mm | 0 m/s | - | - |
| 1777977158 | 15° C | 56% | 1019.7 hPa | 0 mm | 0 m/s | - | - |
| 1777976559 | 15° C | 55% | 1019.7 hPa | 0 mm | 0 m/s | - | - |
| 1777975958 | 15.56° C | 55% | 1019.4 hPa | 0 mm | 0 m/s | - | - |
| 1777975358 | 16.11° C | 54% | 1019.3 hPa | 0 mm | 0 m/s | - | - |
| 1777974760 | 17.22° C | 52% | 1019.3 hPa | 0 mm | 0 m/s | - | - |
| 1777974159 | 18.33° C | 48% | 1019.1 hPa | 0 mm | 0 m/s | - | - |
| 1777973558 | 19.44° C | 38% | 1019.1 hPa | 0 mm | 0 m/s | - | - |
| 1777972958 | 20.56° C | 39% | 1019 hPa | 0 mm | 0.45 m/s, 113° | - | - |
| 1777972358 | 21.11° C | 36% | 1018.9 hPa | 0 mm | 0 m/s | - | - |
| 1777971758 | 21.67° C | 36% | 1018.6 hPa | 0 mm | 0.45 m/s, 139° | - | - |
| 1777971158 | 21.67° C | 35% | 1018.7 hPa | 0 mm | 1.34 m/s, 127° | - | - |
| 1777970559 | 22.22° C | 33% | 1018.6 hPa | 0 mm | 0.45 m/s, 116° | - | - |
| 1777969959 | 22.22° C | 33% | 1018.4 hPa | 0 mm | 0.45 m/s, 113° | - | - |
| 1777969359 | 22.22° C | 32% | 1018.4 hPa | 0 mm | 1.79 m/s, 111° | - | - |
* Rain latest hour (hover to see other rain measurements)
** Current wind speed in m/s (hover to see current wind gust speed)